1483801200.2,19944,4.25,72454.0,-25.81,-60.77,-60.85,0,*62
1483801201.51,19945,4.25,72460.5,-25.81,-60.61,-60.85,0,*64
1483801202.8,19946,4.25,72456.5,-25.81,-60.53,-60.77,0,*6B
1483801204.1,19947,4.25,72452.5,-25.81,-60.37,-60.77,0,*68
1483801205.4,19948,4.31,72460.0,-25.81,-60.61,-60.85,0,*69
1483801206.7,19949,4.25,72460.8,-25.81,-60.61,-61.03,0,*67
1483801207.99,19950,4.25,72452.0,-25.81,-60.53,-60.77,0,*6C
1483801209.3,19951,4.25,72456.5,-25.81,-60.61,-60.85,0,*61
1483801210.59,19952,4.25,72458.5,-25.81,-60.53,-60.77,0,*6E
1483801211.89,19953,4.25,72458.3,-25.81,-60.37,-60.61,0,*6A
1483801213.19,19954,4.25,72464.3,-25.81,-60.11,-60.61,0,*69
1483801214.49,19955,4.25,72460.3,-25.81,-60.37,-60.61,0,*6C
1483801215.79,19956,4.25,72460.8,-25.81,-60.27,-60.53,0,*6F
1483801217.09,19957,4.25,72460.3,-25.81,-60.37,-60.77,0,*69
1483801218.39,19958,4.25,72460.8,-25.81,-60.53,-60.85,0,*69
1483801219.69,19959,4.25,72460.3,-25.81,-60.61,-60.85,0,*69
1483801220.99,19960,4.25,72468.3,-25.81,-60.53,-60.77,0,*6F
1483801222.29,19961,4.25,72466.8,-25.81,-60.61,-60.85,0,*62
1483801223.59,19962,4.25,72464.8,-25.81,-60.53,-60.77,0,*6D
1483801224.89,19963,4.25,72468.5,-25.81,-60.61,-60.85,0,*60
1483801226.19,19964,4.25,72464.8,-25.81,-60.61,-61.03,0,*68
1483801227.48,19965,4.25,72468.5,-25.81,-60.37,-60.77,0,*68
1483801228.78,19966,4.25,72470.3,-25.81,-60.61,-60.85,0,*65
1483801230.08,19967,4.25,72472.5,-25.81,-60.37,-60.61,0,*6D
1483801231.39,19968,4.25,72468.8,-25.81,-60.61,-60.85,0,*6B
1483801232.68,19969,4.25,72466.5,-25.81,-60.37,-60.61,0,*63
1483801233.99,19970,4.25,72470.3,-25.81,-60.61,-60.85,0,*62
1483801235.29,19971,4.25,72464.0,-25.81,-60.61,-60.85,0,*63
1483801236.59,19972,4.25,72468.0,-25.81,-60.53,-60.85,0,*61
1483801237.89,19973,4.25,72470.8,-25.81,-60.61,-60.77,0,*6C
1483801239.19,19974,4.25,72474.3,-25.81,-60.37,-60.61,0,*6F
1483801240.48,19975,4.25,72466.8,-25.81,-60.37,-60.77,0,*69
1483801241.78,19976,4.25,72468.3,-25.81,-60.53,-60.61,0,*6F
1483801243.08,19977,4.25,72470.5,-25.81,-60.37,-60.61,0,*6C
1483801244.39,19978,4.25,72466.5,-25.81,-60.27,-60.53,0,*63
1483801245.68,19979,4.25,72464.0,-25.81,-60.53,-60.77,0,*67
1483801246.98,19980,4.25,72468.5,-25.81,-60.53,-60.61,0,*66
1483801248.28,19981,4.25,72470.3,-25.81,-60.61,-60.77,0,*61
1483801249.58,19982,4.25,72472.0,-25.81,-60.53,-60.77,0,*63
1483801250.87,19983,4.25,72472.8,-25.81,-60.61,-60.77,0,*63
1483801252.17,19984,4.25,72472.5,-25.81,-60.53,-60.77,0,*65
1483801253.47,19985,4.25,72476.0,-25.81,-60.53,-60.77,0,*64
1483801254.76,19986,4.25,72472.3,-25.81,-60.53,-60.77,0,*67
1483801256.06,19987,4.25,72466.0,-25.81,-60.61,-60.77,0,*67
1483801257.36,19988,4.25,72460.8,-25.81,-60.53,-60.61,0,*6E
1483801258.66,19989,4.25,72460.5,-25.81,-60.53,-60.85,0,*65
1483801259.96,19990,4.25,72464.3,-25.81,-60.53,-60.77,0,*60
1483801261.25,19991,4.25,72468.0,-25.81,-60.61,-61.03,0,*62
1483801262.55,19992,4.25,72472.0,-25.81,-60.61,-61.03,0,*61
1483801263.85,19993,4.25,72468.0,-25.81,-60.61,-60.85,0,*6F
1483801265.15,19994,4.25,72464.3,-25.81,-60.53,-60.85,0,*69
1483801266.44,19995,4.25,72466.3,-25.81,-60.77,-61.11,0,*62
1483801267.72,19996,4.25,72460.5,-25.81,-60.77,-61.11,0,*61
1483801269.02,19997,4.25,72462.5,-25.81,-60.53,-60.85,0,*6A
1483801270.29,19998,4.25,72464.8,-25.83,-60.61,-60.85,0,*66
1483801271.56,19999,4.25,72464.5,-25.83,-60.61,-60.77,0,*6A
1483801272.84,20000,4.25,72466.8,-25.87,-60.61,-60.93,0,*67
1483801274.1,20001,4.25,72460.3,-25.83,-60.77,-60.85,0,*62
1483801275.36,20002,4.25,72464.3,-25.83,-60.77,-61.03,0,*6E
1483801276.63,20003,4.25,72468.0,-25.83,-60.61,-60.77,0,*6A
1483801277.91,20004,4.25,72464.0,-25.83,-60.61,-60.85,0,*60
1483801279.17,20005,4.25,72464.3,-25.87,-60.69,-60.93,0,*6A
1483801280.44,20006,4.25,72464.3,-25.83,-60.37,-60.77,0,*6C
1483801281.71,20007,4.25,72470.5,-25.83,-60.37,-60.61,0,*6A
1483801282.97,20008,4.25,72462.0,-25.83,-60.77,-61.27,0,*62
1483801284.23,20009,4.25,72466.5,-25.83,-60.77,-60.85,0,*6A
1483801285.49,20010,4.25,72464.8,-25.83,-60.77,-61.27,0,*6B
1483801286.74,20011,4.25,72448.0,-25.83,-60.77,-61.11,0,*6F
1483801288.01,20012,4.25,72446.5,-25.83,-60.77,-60.85,0,*60
1483801289.28,20013,4.25,72464.8,-25.83,-60.37,-60.77,0,*68
1483801290.55,20014,4.25,72468.3,-25.83,-60.61,-60.85,0,*61
1483801291.82,20015,4.25,72452.0,-25.83,-60.61,-61.03,0,*6F
1483801293.08,20016,4.25,72460.0,-25.87,-60.69,-61.11,0,*63
1483801294.36,20017,4.25,72460.8,-25.87,-60.61,-60.85,0,*66
1483801295.62,20018,4.25,72466.3,-25.87,-60.69,-61.11,0,*6D
1483801296.88,20019,4.25,72464.8,-25.87,-60.69,-61.11,0,*6C
1483801298.14,20020,4.25,72464.0,-25.87,-60.37,-60.69,0,*63
1483801299.42,20021,4.25,72468.3,-25.87,-60.37,-60.69,0,*62
1483801300.69,20022,4.25,72468.3,-25.87,-60.53,-60.61,0,*6B
1483801301.96,20023,4.25,72472.3,-25.87,-60.61,-60.93,0,*66
1483801303.23,20024,4.25,72472.3,-25.87,-60.69,-60.85,0,*6E
1483801304.49,20025,4.25,72470.8,-25.87,-60.69,-61.11,0,*63
1483801305.76,20026,4.25,72474.5,-25.87,-60.85,-60.93,0,*69
1483801307.04,20027,4.25,72472.8,-25.87,-60.61,-60.93,0,*62
1483801308.32,20028,4.25,72472.0,-25.87,-60.61,-60.85,0,*6A
1483801309.59,20029,4.25,72454.8,-25.87,-60.37,-60.61,0,*62
1483801310.87,20030,4.25,72450.5,-25.87,-60.61,-60.93,0,*64
1483801312.14,20031,4.25,72450.8,-25.87,-60.37,-60.61,0,*6B
1483801313.41,20032,4.25,72454.3,-25.87,-60.69,-60.93,0,*6E
1483801314.67,20033,4.25,72450.8,-25.87,-60.69,-61.19,0,*6C
1483801315.92,20034,4.25,72438.3,-25.83,-60.77,-61.27,0,*6D
1483801317.19,20035,4.25,72434.8,-25.87,-60.85,-61.11,0,*60
1483801318.45,20036,4.25,72440.5,-25.87,-60.93,-61.19,0,*6C
1483801319.75,20037,4.25,72446.3,-25.89,-61.03,-61.53,0,*65
1483801321.04,20038,4.25,72452.0,-25.89,-60.77,-61.27,0,*6B
1483801322.3,20039,4.25,72456.0,-25.91,-60.77,-61.19,0,*6E
1483801323.61,20040,4.25,72442.0,-25.89,-60.27,-60.53,0,*63
1483801324.9,20041,4.25,72426.8,-25.89,-60.69,-60.93,0,*64
1483801326.18,20042,4.25,72426.8,-25.91,-60.45,-60.77,0,*6A
1483801327.48,20043,4.25,72448.5,-25.89,-60.19,-60.19,0,*63
1483801328.75,20044,4.25,72434.0,-25.89,-59.79,-60.19,0,*68
1483801330.01,20045,4.25,72436.0,-25.89,-59.71,-60.03,0,*6A
1483801331.25,20046,4.25,72444.3,-25.87,-59.95,-60.19,0,*66
1483801332.52,20047,4.25,72440.5,-25.87,-60.45,-60.61,0,*6F
1483801333.8,20048,4.25,72452.0,-25.87,-60.19,-60.37,0,*6A
1483801335.05,20049,4.25,72454.5,-25.83,-60.03,-60.61,0,*67
1483801336.32,20050,4.25,72458.5,-25.83,-60.11,-60.37,0,*6F
1483801337.6,20051,4.25,72456.8,-25.83,-60.19,-60.37,0,*66
1483801338.87,20052,4.25,72460.5,-25.87,-60.37,-60.69,0,*66
1483801340.14,20053,4.25,72454.5,-25.83,-60.37,-60.77,0,*6C
1483801341.41,20054,4.25,72456.5,-25.87,-60.61,-60.93,0,*66
1483801342.69,20055,4.25,72454.3,-25.87,-60.37,-60.85,0,*63
1483801343.96,20056,4.25,72444.3,-25.83,-60.53,-60.77,0,*6B
1483801345.23,20057,4.25,72466.5,-25.87,-60.61,-60.69,0,*60
1483801346.51,20058,4.25,72456.8,-25.87,-60.61,-60.85,0,*6D
1483801347.78,20059,4.25,72454.0,-25.87,-60.37,-60.45,0,*63
1483801349.05,20060,4.25,72456.3,-25.83,-60.27,-60.53,0,*6B
1483801350.33,20061,4.25,72456.8,-25.83,-60.27,-60.53,0,*6A
1483801351.61,20062,4.25,72468.8,-25.83,-60.27,-60.61,0,*68
1483801352.88,20063,4.25,72460.5,-25.83,-60.37,-60.77,0,*6F
1483801354.14,20064,4.25,72456.0,-25.87,-60.69,-60.93,0,*6D
1483801355.42,20065,4.25,72458.3,-25.87,-60.61,-60.85,0,*63
1483801356.69,20066,4.25,72456.8,-25.83,-60.37,-60.61,0,*6D
1483801357.96,20067,4.25,72454.0,-25.83,-60.37,-60.61,0,*6C
1483801359.23,20068,4.25,72456.5,-25.83,-60.37,-60.53,0,*62
1483801360.51,20069,4.25,72460.0,-25.87,-60.19,-60.45,0,*6C
1483801361.78,20070,4.25,72462.3,-25.83,-60.53,-60.85,0,*62
1483801363.05,20071,4.25,72460.5,-25.87,-60.45,-60.85,0,*60
1483801364.33,20072,4.25,72464.8,-25.83,-60.27,-60.27,0,*6B
1483801365.6,20073,4.25,72462.5,-25.83,-60.37,-60.61,0,*69
1483801366.87,20074,4.25,72472.5,-25.87,-60.45,-60.85,0,*65
1483801368.15,20075,4.25,72472.3,-25.87,-60.61,-60.93,0,*65
1483801369.41,20076,4.25,72468.0,-25.87,-60.45,-60.69,0,*65
1483801370.68,20077,4.25,72464.8,-25.83,-60.37,-60.61,0,*6D
1483801371.95,20078,4.25,72454.5,-25.83,-60.53,-60.77,0,*67
1483801373.22,20079,4.25,72460.3,-25.83,-60.61,-61.03,0,*65
1483801374.5,20080,4.25,72454.3,-25.83,-60.11,-60.37,0,*62
1483801375.76,20081,4.25,72460.3,-25.87,-60.45,-60.69,0,*6D
1483801377.04,20082,4.25,72458.8,-25.87,-60.37,-60.61,0,*63
1483801378.3,20083,4.25,72456.5,-25.83,-60.37,-60.77,0,*61
1483801379.58,20084,4.25,72460.5,-25.87,-60.45,-60.85,0,*6A
1483801380.82,20085,4.25,72462.0,-25.83,-60.03,-60.37,0,*64
1483801382.06,20086,4.25,72450.8,-25.83,-59.87,-60.11,0,*65
1483801383.34,20087,4.25,72448.8,-25.87,-60.11,-60.37,0,*61
1483801384.61,20088,4.25,72448.8,-25.87,-60.45,-60.93,0,*61
1483801385.88,20089,4.25,72454.5,-25.87,-60.61,-60.93,0,*66
1483801387.16,20090,4.25,72450.3,-25.87,-60.37,-60.61,0,*60
1483801388.43,20091,4.25,72448.3,-25.83,-60.27,-60.61,0,*64
1483801389.71,20092,4.25,72444.3,-25.87,-60.61,-60.61,0,*61
1483801390.99,20093,4.25,72438.0,-25.87,-60.53,-60.85,0,*6B
1483801392.26,20094,4.25,72432.8,-25.83,-60.37,-60.61,0,*60
1483801393.53,20095,4.25,72438.3,-25.83,-60.37,-60.61,0,*61
1483801394.8,20096,4.25,72440.3,-25.83,-60.53,-60.77,0,*67
1483801396.08,20097,4.25,72442.5,-25.87,-60.61,-60.85,0,*6E
1483801397.35,20098,4.25,72436.8,-25.83,-60.37,-60.77,0,*6B
1483801398.62,20099,4.25,72442.3,-25.87,-60.45,-60.61,0,*6C
1483801399.89,20100,4.25,72438.8,-25.83,-60.37,-60.53,0,*6D
1483801401.17,20101,4.25,72432.3,-25.83,-60.27,-60.61,0,*6C
1483801402.44,20102,4.25,72436.8,-25.83,-60.53,-60.77,0,*6B
1483801403.71,20103,4.25,72438.0,-25.87,-60.61,-60.69,0,*60
1483801404.98,20104,4.25,72438.0,-25.83,-60.37,-60.61,0,*68
1483801406.26,20105,4.25,72442.3,-25.83,-60.27,-60.53,0,*69
1483801407.53,20106,4.25,72438.5,-25.83,-60.37,-60.61,0,*6A
1483801408.8,20107,4.25,72442.3,-25.83,-60.53,-60.77,0,*6E
1483801410.07,20108,4.25,72442.0,-25.83,-60.61,-60.77,0,*60
1483801411.34,20109,4.25,72436.3,-25.83,-60.53,-60.77,0,*60
1483801412.61,20110,4.25,72436.0,-25.83,-60.53,-60.77,0,*68
1483801413.88,20111,4.25,72438.3,-25.83,-60.53,-60.77,0,*69
1483801415.15,20112,4.25,72440.8,-25.83,-60.61,-60.85,0,*66
1483801416.41,20113,4.25,72446.8,-25.87,-60.69,-61.11,0,*67
1483801417.68,20114,4.25,72446.8,-25.87,-60.85,-61.19,0,*6A
1483801418.93,20115,4.25,72452.3,-25.87,-60.85,-61.35,0,*65
1483801420.17,20116,4.25,72434.5,-25.87,-60.93,-61.43,0,*60
1483801421.41,20117,4.25,72442.3,-25.83,-60.93,-61.35,0,*64
1483801422.68,20118,4.25,72448.5,-25.87,-60.85,-61.11,0,*6E
1483801423.94,20119,4.25,72446.8,-25.87,-60.69,-60.93,0,*66
1483801425.21,20120,4.25,72446.8,-25.87,-60.69,-60.85,0,*6B
1483801426.48,20121,4.25,72434.0,-25.87,-60.61,-60.93,0,*65
1483801427.76,20122,4.25,72444.0,-25.87,-60.61,-60.93,0,*66
1483801429.02,20123,4.25,72446.5,-25.87,-60.69,-61.19,0,*6C
1483801430.26,20124,4.25,72454.0,-25.87,-60.93,-61.35,0,*60
1483801431.53,20125,4.25,72442.0,-25.87,-60.85,-61.11,0,*60
1483801432.79,20126,4.25,72438.0,-25.87,-60.69,-60.93,0,*6A
1483801434.08,20127,4.25,72450.3,-25.89,-60.69,-61.03,0,*6D
1483801435.37,20128,4.25,72454.8,-25.89,-60.77,-61.03,0,*6D
1483801436.66,20129,4.25,72448.8,-25.89,-60.69,-61.19,0,*68
1483801437.95,20130,4.25,72448.3,-25.89,-60.69,-60.93,0,*63
1483801439.25,20131,4.25,72458.8,-25.89,-60.53,-60.77,0,*61
1483801440.54,20132,4.25,72474.3,-25.89,-60.77,-61.03,0,*66
1483801441.83,20133,4.25,72468.8,-25.89,-60.77,-61.19,0,*6C
1483801443.09,20134,4.25,72464.0,-25.91,-61.03,-61.27,0,*6D
1483801444.36,20135,4.25,72464.8,-25.91,-61.03,-61.27,0,*6C
1483801445.65,20136,4.25,72470.8,-25.89,-60.93,-61.19,0,*63
1483801446.91,20137,4.25,72466.0,-25.91,-60.93,-61.27,0,*66
1483801448.17,20138,4.25,72464.0,-25.91,-61.03,-61.27,0,*61
1483801449.44,20139,4.25,72464.0,-25.91,-60.93,-61.19,0,*65
1483801450.7,20140,4.25,72468.0,-25.91,-60.93,-61.19,0,*6B
1483801451.97,20141,4.25,72464.8,-25.91,-60.93,-61.27,0,*67
1483801453.21,20142,4.25,72466.0,-25.91,-61.03,-61.43,0,*6E
1483801454.48,20143,4.25,72454.0,-25.91,-60.93,-61.19,0,*68
1483801455.74,20144,4.25,72452.3,-25.91,-60.77,-61.03,0,*6E
1483801457.01,20145,4.25,72450.5,-25.91,-60.77,-60.93,0,*67
1483801458.28,20146,4.25,72446.3,-25.91,-60.77,-61.19,0,*67
1483801459.54,20147,4.25,72456.3,-25.91,-60.93,-61.19,0,*6C
1483801460.82,20148,4.25,72458.3,-25.91,-60.53,-60.93,0,*6C
1483801462.08,20149,4.25,72456.0,-25.91,-60.69,-60.93,0,*64
1483801463.35,20150,4.25,72438.8,-25.91,-60.69,-60.93,0,*6C
1483801464.62,20151,4.25,72448.5,-25.91,-60.69,-60.77,0,*67
1483801465.89,20152,4.25,72458.0,-25.91,-60.27,-60.69,0,*61
1483801467.18,20153,4.25,72456.0,-25.91,-60.27,-60.53,0,*69
1483801468.48,20154,4.25,72456.5,-25.89,-60.27,-60.69,0,*6E
1483801469.75,20155,4.25,72456.5,-25.91,-60.69,-61.03,0,*61
1483801471.03,20156,4.25,72454.3,-25.89,-60.77,-61.03,0,*64
1483801472.33,20157,4.25,72444.3,-25.89,-60.77,-60.77,0,*67
1483801473.59,20158,4.25,72446.0,-25.91,-60.69,-61.03,0,*6C
1483801474.85,20159,4.25,72448.8,-25.91,-60.77,-61.03,0,*62
1483801476.12,20160,4.25,72452.3,-25.91,-60.69,-60.93,0,*6F
1483801477.39,20161,4.25,72458.3,-25.91,-60.69,-60.77,0,*64
1483801478.66,20162,4.25,72458.5,-25.91,-60.45,-60.93,0,*63
1483801479.92,20163,4.25,72462.0,-25.91,-60.77,-61.03,0,*6B
1483801481.19,20164,4.25,72462.0,-25.91,-60.77,-61.19,0,*67
1483801482.46,20165,4.25,72466.0,-25.91,-60.77,-61.03,0,*6D
1483801483.72,20166,4.25,72464.5,-25.91,-60.77,-61.03,0,*6E
1483801484.98,20167,4.25,72464.0,-25.91,-60.77,-61.19,0,*64
1483801486.28,20168,4.25,72464.0,-25.93,-60.77,-61.19,0,*69
1483801487.57,20169,4.25,72462.5,-25.93,-61.03,-61.27,0,*67
1483801488.81,20170,4.25,72468.3,-25.95,-61.11,-61.35,0,*69
1483801490.1,20171,4.25,72460.3,-25.93,-60.93,-61.27,0,*66
1483801491.39,20172,4.25,72456.8,-25.93,-60.93,-61.19,0,*68
1483801492.69,20173,4.25,72458.0,-25.93,-60.77,-61.03,0,*68
1483801493.96,20174,4.25,72456.8,-25.95,-60.85,-61.03,0,*64
1483801495.26,20175,4.25,72468.3,-25.93,-60.53,-60.93,0,*60
1483801496.55,20176,4.25,72464.5,-25.93,-60.69,-61.03,0,*62
1483801497.85,20177,4.25,72454.8,-25.93,-60.45,-60.77,0,*6F
1483801499.15,20178,4.25,72460.0,-25.93,-60.53,-60.77,0,*67
1483801500.43,20179,4.25,72462.5,-25.95,-60.61,-60.85,0,*6C
1483801501.72,20180,4.25,72460.8,-25.93,-60.77,-61.03,0,*64
1483801503.03,20181,4.25,72466.5,-25.93,-60.53,-61.03,0,*63
1483801504.3,20182,4.25,72472.3,-25.95,-60.53,-60.77,0,*64
1483801505.61,20183,4.25,72462.3,-25.93,-60.19,-60.61,0,*6A
1483801506.91,20184,4.25,72460.3,-25.93,-60.27,-60.69,0,*68
1483801508.21,20185,4.25,72456.8,-25.93,-60.77,-60.93,0,*69
1483801509.46,20186,4.25,72458.5,-25.95,-60.85,-61.35,0,*6C
1483801510.72,20187,4.25,72450.5,-25.95,-60.77,-61.27,0,*63
1483801512.01,20188,4.25,72456.0,-25.93,-60.93,-61.19,0,*6D
1483801513.31,20189,4.25,72462.3,-25.93,-60.69,-60.93,0,*6A
1483801514.57,20190,4.25,72460.5,-25.95,-60.85,-61.11,0,*6D
1483801515.86,20191,4.25,72462.3,-25.93,-60.93,-61.03,0,*6E
1483801517.16,20192,4.25,72456.0,-25.93,-60.69,-60.69,0,*65
1483801518.47,20193,4.25,72454.5,-25.93,-60.19,-60.53,0,*6A
1483801519.74,20194,4.25,72458.8,-25.95,-60.61,-60.77,0,*62
1483801521.02,20195,4.25,72462.8,-25.95,-60.53,-60.85,0,*6F
1483801522.32,20196,4.25,72452.8,-25.93,-60.45,-60.77,0,*60
1483801523.61,20197,4.25,72456.0,-25.93,-60.69,-60.77,0,*6F
1483801524.91,20198,4.25,72458.5,-25.93,-60.45,-60.69,0,*61
1483801526.18,20199,4.25,72460.8,-25.95,-60.61,-61.03,0,*6D
1483801527.49,20200,4.25,72460.5,-25.93,-60.27,-60.69,0,*67
1483801528.76,20201,4.25,72458.8,-25.95,-60.53,-60.77,0,*6C
1483801530.03,20202,4.25,72460.0,-25.95,-60.53,-60.77,0,*6F
1483801531.31,20203,4.25,72462.3,-25.95,-60.45,-60.85,0,*64
1483801532.58,20204,4.25,72466.5,-25.95,-60.53,-60.61,0,*6E
1483801533.88,20205,4.25,72462.5,-25.93,-60.45,-60.77,0,*69
1483801535.15,20206,4.25,72462.3,-25.95,-60.85,-61.03,0,*62
1483801536.42,20207,4.25,72464.8,-25.95,-60.85,-61.11,0,*60
1483801537.72,20208,4.25,72464.0,-25.93,-60.53,-60.69,0,*6C
1483801539.01,20209,4.25,72464.5,-25.93,-60.69,-60.77,0,*6B
1483801540.29,20210,4.25,72464.5,-25.95,-60.61,-60.85,0,*60
1483801541.57,20211,4.25,72464.5,-25.95,-60.61,-60.85,0,*61
1483801542.85,20212,4.25,72464.5,-25.95,-60.53,-60.85,0,*63
1483801544.14,20213,4.25,72466.8,-25.93,-60.69,-60.77,0,*60
1483801545.41,20214,4.25,72466.8,-25.95,-60.85,-61.11,0,*62
1483801546.7,20215,4.25,72464.5,-25.93,-60.77,-60.93,0,*63
1483801547.97,20216,4.25,72466.0,-25.95,-60.85,-61.27,0,*65
1483801549.23,20217,4.25,72460.5,-25.95,-60.85,-61.11,0,*61
1483801550.53,20218,4.25,72466.3,-25.93,-60.69,-60.85,0,*66
1483801551.81,20219,4.25,72466.5,-25.95,-60.61,-61.03,0,*66
1483801553.08,20220,4.25,72466.3,-25.99,-60.53,-60.85,0,*6E
1483801554.35,20221,4.25,72460.3,-25.99,-60.85,-61.11,0,*68
1483801555.62,20222,4.25,72466.0,-25.99,-60.61,-61.03,0,*62
1483801556.9,20223,4.25,72464.5,-25.99,-60.61,-60.85,0,*6C
1483801558.16,20224,4.25,72470.3,-25.99,-60.77,-61.03,0,*63
1483801559.42,20225,4.25,72468.8,-25.99,-60.77,-61.03,0,*62
1483801560.7,20226,4.25,72466.5,-25.99,-60.61,-60.85,0,*69
1483801561.96,20227,4.25,72466.3,-25.99,-60.77,-61.11,0,*63
1483801563.24,20228,4.25,72466.5,-25.99,-60.61,-60.77,0,*6A
1483801564.51,20229,4.25,72466.8,-25.99,-60.61,-60.77,0,*6B
1483801565.8,20230,4.25,72468.8,-26.01,-60.93,-61.19,0,*65
1483801567.09,20231,4.25,72466.0,-26.01,-60.85,-61.11,0,*6B
1483801568.36,20232,4.25,72466.3,-25.99,-60.85,-61.03,0,*69
1483801569.62,20233,4.25,72466.0,-25.99,-60.77,-61.03,0,*65
1483801570.9,20234,4.25,72466.5,-25.99,-60.85,-61.03,0,*6F
1483801572.15,20235,4.25,72468.3,-25.99,-60.77,-61.11,0,*60
1483801573.42,20236,4.25,72466.8,-25.99,-60.85,-61.11,0,*6E
1483801574.67,20237,4.25,72464.3,-25.99,-60.77,-61.11,0,*62
1483801575.96,20238,4.25,72464.8,-26.01,-60.93,-61.11,0,*65
1483801577.22,20239,4.25,72466.8,-25.99,-60.77,-61.03,0,*6F
1483801578.48,20240,4.25,72464.3,-25.99,-60.77,-61.11,0,*62
1483801579.75,20241,4.25,72466.3,-25.99,-60.85,-61.27,0,*6B
1483801581.04,20242,4.25,72462.8,-26.01,-60.85,-61.11,0,*6F
1483801582.33,20243,4.25,72462.3,-26.01,-60.69,-60.93,0,*67
1483801583.62,20244,4.25,72462.3,-26.01,-60.93,-61.19,0,*66
1483801584.91,20245,4.25,72458.5,-26.01,-60.93,-61.11,0,*6F
1483801586.2,20246,4.25,72456.3,-26.01,-60.93,-61.19,0,*64
1483801587.47,20247,4.25,72462.3,-26.01,-61.11,-61.35,0,*60
1483801588.77,20248,4.25,72456.8,-26.01,-60.45,-60.85,0,*65
1483801590.06,20249,4.25,72454.0,-26.01,-60.93,-61.19,0,*6B
1483801591.36,20250,4.25,72456.3,-26.01,-60.61,-60.85,0,*6A
1483801592.66,20251,4.25,72456.5,-26.01,-60.85,-61.11,0,*6D
1483801593.92,20252,4.25,72466.8,-25.99,-60.69,-60.85,0,*62
1483801595.23,20253,4.25,72470.8,-26.01,-60.61,-60.69,0,*6B
1483801596.51,20254,4.25,72474.5,-25.99,-60.27,-60.53,0,*65
1483801597.78,20255,4.25,72466.5,-25.99,-60.45,-60.85,0,*6B
1483801599.08,20256,4.25,72468.8,-26.01,-60.61,-60.93,0,*6B
1483801600.36,20257,4.25,72468.3,-25.99,-60.61,-60.85,0,*6F
1483801601.62,20258,4.25,72466.5,-25.99,-60.93,-61.11,0,*61
1483801602.88,20259,4.25,72466.8,-25.99,-60.77,-61.03,0,*69
1483801604.17,20260,4.25,72468.0,-26.01,-60.69,-60.93,0,*66
1483801605.47,20261,4.25,72456.8,-26.01,-60.85,-61.11,0,*6E
1483801606.77,20262,4.25,72462.5,-26.01,-60.61,-60.93,0,*6C
1483801608.06,20263,4.25,72462.5,-26.01,-60.85,-61.11,0,*6C
1483801609.35,20264,4.25,72460.5,-26.01,-60.85,-61.11,0,*6B
1483801610.64,20265,4.25,72458.5,-26.01,-60.69,-61.11,0,*68
1483801611.93,20266,4.25,72454.5,-26.01,-60.85,-61.11,0,*69
1483801613.22,20267,4.25,72458.8,-26.01,-60.93,-61.11,0,*6F
1483801614.52,20268,4.25,72466.0,-26.01,-60.61,-60.93,0,*66
1483801615.79,20269,4.25,72466.0,-26.03,-60.61,-60.69,0,*60
1483801617.09,20270,4.25,72474.5,-26.01,-60.45,-60.69,0,*6C
1483801618.36,20271,4.25,72462.8,-25.99,-60.37,-60.37,0,*61
1483801619.66,20272,4.25,72474.8,-26.01,-60.45,-60.85,0,*6C
1483801620.97,20273,4.25,72476.5,-26.01,-60.61,-60.85,0,*6B
1483801622.27,20274,4.25,72470.0,-26.01,-60.61,-60.85,0,*6C
1483801623.55,20275,4.25,72454.3,-25.99,-60.61,-60.85,0,*6F
1483801624.82,20276,4.25,72452.8,-25.99,-60.77,-60.85,0,*6B
1483801626.1,20277,4.25,72454.8,-25.99,-60.37,-60.53,0,*65
1483801627.39,20278,4.25,72454.3,-26.01,-60.11,-60.45,0,*6B
1483801628.69,20279,4.25,72458.3,-26.01,-60.45,-60.61,0,*6D
1483801629.99,20280,4.25,72456.0,-26.01,-60.45,-60.61,0,*6B
1483801631.28,20281,4.25,72462.5,-26.01,-60.69,-60.93,0,*69
1483801632.57,20282,4.25,72466.5,-26.01,-60.93,-61.19,0,*6C
1483801633.87,20283,4.25,72454.0,-26.01,-60.85,-61.19,0,*6A
1483801635.16,20284,4.25,72452.3,-26.01,-60.85,-61.11,0,*65
1483801636.47,20285,4.25,72460.5,-26.01,-60.61,-60.85,0,*62
1483801637.77,20286,4.25,72466.0,-26.01,-60.61,-60.69,0,*63
1483801639.06,20287,4.25,72454.0,-26.01,-60.45,-60.69,0,*64
1483801640.35,20288,4.25,72442.0,-26.01,-60.69,-60.93,0,*60
1483801641.62,20289,4.25,72454.0,-25.99,-60.45,-60.61,0,*60
1483801642.93,20290,4.25,72460.8,-26.01,-60.37,-60.61,0,*6F
1483801644.22,20291,4.25,72466.3,-26.01,-60.45,-60.61,0,*6B
1483801645.5,20292,4.25,72462.0,-25.99,-60.37,-60.77,0,*68
1483801646.79,20293,4.25,72460.3,-26.01,-60.45,-60.93,0,*64
1483801648.07,20294,4.25,72464.3,-25.99,-60.61,-60.77,0,*6D
1483801649.34,20295,4.25,72458.8,-25.99,-60.61,-60.77,0,*6C
1483801650.64,20296,4.25,72458.0,-26.01,-60.37,-60.69,0,*61
1483801651.92,20297,4.25,72460.0,-25.99,-60.53,-60.53,0,*69
1483801653.19,20298,4.25,72458.8,-25.99,-60.53,-60.77,0,*60
1483801654.46,20299,4.25,72460.3,-25.99,-60.53,-60.61,0,*66
1483801655.76,20300,4.25,72460.8,-26.01,-60.61,-61.11,0,*62
1483801657.05,20301,4.25,72462.8,-26.01,-60.93,-61.19,0,*66
1483801658.32,20302,4.25,72458.5,-26.01,-60.93,-61.35,0,*6B
1483801659.61,20303,4.25,72462.8,-26.01,-60.69,-60.93,0,*62
1483801660.92,20304,4.25,72458.5,-26.01,-60.61,-60.85,0,*6A
1483801662.22,20305,4.25,72458.0,-26.01,-60.61,-60.93,0,*6C
1483801663.49,20306,4.25,72462.0,-25.99,-60.85,-61.03,0,*6F
1483801664.79,20307,4.25,72458.0,-26.01,-60.37,-60.61,0,*60
1483801666.1,20308,4.25,72458.3,-26.01,-60.37,-60.61,0,*6F
1483801667.4,20309,4.25,72462.3,-26.01,-60.61,-60.85,0,*67
1483801668.68,20310,4.25,72462.8,-25.99,-60.53,-60.85,0,*6C
1483801669.97,20311,4.25,72464.0,-26.01,-60.93,-61.19,0,*67
1483801671.26,20312,4.25,72464.3,-26.01,-60.85,-61.11,0,*6B
1483801672.55,20313,4.25,72460.0,-26.01,-60.93,-61.19,0,*65
1483801673.84,20314,4.25,72464.5,-26.01,-60.69,-61.11,0,*6F
1483801675.14,20315,4.25,72468.0,-26.01,-60.61,-60.85,0,*6A
1483801676.45,20316,4.25,72464.0,-26.01,-60.61,-60.85,0,*69
1483801677.74,20317,4.25,72464.3,-26.01,-60.93,-60.93,0,*62
1483801679.03,20318,4.25,72464.8,-26.01,-60.85,-61.11,0,*61
1483801680.32,20319,4.25,72464.0,-26.01,-60.93,-61.19,0,*6F
1483801681.59,20320,4.25,72466.0,-25.99,-60.77,-61.03,0,*66
1483801682.88,20321,4.25,72462.5,-26.01,-60.85,-61.11,0,*6B
1483801684.17,20322,4.25,72466.5,-26.01,-60.93,-61.19,0,*67
1483801685.46,20323,4.25,72468.8,-26.01,-60.85,-61.11,0,*69
1483801686.72,20324,4.25,72466.8,-26.03,-60.93,-61.11,0,*6B
1483801687.99,20325,4.25,72466.5,-26.03,-60.45,-60.93,0,*6A
1483801689.27,20326,4.25,72468.8,-26.03,-60.61,-60.93,0,*6F
1483801690.56,20327,4.25,72466.8,-26.01,-60.85,-61.11,0,*6D
1483801691.86,20328,4.25,72472.0,-26.01,-60.85,-61.19,0,*6A
1483801693.12,20329,4.25,72470.8,-26.03,-60.69,-60.93,0,*68
1483801694.41,20330,4.25,72466.5,-26.05,-60.85,-61.11,0,*6F
1483801695.68,20331,4.25,72468.0,-26.03,-60.85,-61.11,0,*68
1483801696.94,20332,4.25,72474.8,-26.03,-60.93,-61.19,0,*64
1483801698.18,20333,4.25,72470.3,-26.03,-61.11,-61.43,0,*61
1483801699.45,20334,4.25,72470.0,-26.03,-60.85,-61.11,0,*6D
1483801700.72,20335,4.25,72472.0,-26.03,-60.85,-61.19,0,*64
1483801701.99,20336,4.25,72472.3,-26.03,-60.85,-61.11,0,*6F
1483801703.27,20337,4.25,72478.0,-26.05,-61.11,-61.19,0,*6C
1483801704.54,20338,4.25,72478.5,-26.03,-60.85,-60.93,0,*6A
1483801705.82,20339,4.25,72476.8,-26.03,-60.61,-60.93,0,*61
1483801707.1,20340,4.25,72474.0,-26.03,-60.61,-60.85,0,*68
1483801708.37,20341,4.25,72476.5,-26.03,-60.85,-60.93,0,*64
1483801709.65,20342,4.25,72476.5,-26.03,-60.61,-60.85,0,*6A
1483801710.92,20343,4.25,72476.8,-26.03,-60.69,-60.93,0,*64